Home > Weather > Netherlands > Amsterdam > Past weeks

Flag for Netherlands Weather past 2 weeks in Amsterdam, Netherlands

50 °F

Partly cloudy.

Feels Like: 45 °F
Forecast: 46 / 51 °F
Wind: 14 mph from Southwest

Location: Amsterdam Schiphol Airport

Current Time: Dec 2, 2015 at 8:06:08 AM

Latest Report: Dec 2, 2015 at 7:25 AM

Visibility: 4 mi

Pressure: 30.24 "Hg

Humidity: 94%

Dew point: 48 °F

Location of AmsterdamLocation

Historic Weather in Amsterdam — Graph


Amsterdam temperature yesterday

Maximum temperature yesterday: 55 °F (at 8:25 PM)
Minimum temperature yesterday: 43 °F (at 6:55 AM)
Average temperature yesterday: 50 °F

Past Weeks' High & Low Weather Summary

High59 °F (Nov 17, 7:25 PM)100% (Nov 17, 6:25 AM)30.24 "Hg (Nov 17, 6:25 AM)
Low30 °F (Nov 23, 5:25 AM)57% (Nov 30, 5:55 AM)29.30 "Hg (Nov 21, 6:55 AM)
Average46 °F85%29.82 "Hg
* Reported Nov 17 6:25 AM — Dec 2 6:55 AM, Amsterdam, Weather by CustomWeather, © 2015

Note: Actual official high and low records may vary slightly from our data, if they occured in-between our weather recording intervals... More about our weather records


Amsterdam weather history for previous 24 hours

Time TempWeatherWind HumidityBarometerVisibility
6:55 AM
Wed, Dec 2
50 °FPassing clouds.15 mph94%30.24 "HgN/A
6:25 AM50 °FPassing clouds.16 mph94%30.21 "HgN/A
5:55 AM52 °FPassing clouds.16 mph88%30.24 "HgN/A
4:25 AM52 °FPassing clouds.15 mph77%30.24 "HgN/A
3:55 AM54 °FPassing clouds.15 mph72%30.24 "HgN/A
3:25 AM54 °FPassing clouds.17 mph67%30.24 "HgN/A
2:55 AM52 °FClear.16 mph77%30.24 "Hg10 mi
1:25 AM54 °FClear.17 mph77%30.24 "Hg10 mi
12:55 AM54 °FClear.16 mph77%30.21 "Hg10 mi
12:25 AM54 °FPassing clouds.17 mph82%30.21 "HgN/A
11:55 PM
Tue, Dec 1
54 °FPassing clouds.18 mph82%30.21 "HgN/A
10:55 PM55 °FPassing clouds.18 mph77%30.21 "HgN/A
10:25 PM55 °FPassing clouds.20 mph77%30.21 "HgN/A
9:55 PM55 °FOvercast.22 mph77%30.21 "HgN/A
9:25 PM55 °FPassing clouds.22 mph77%30.21 "HgN/A
8:55 PM55 °FPassing clouds.20 mph82%30.21 "HgN/A
8:25 PM55 °FPassing clouds.20 mph82%30.18 "HgN/A
7:55 PM54 °FPassing clouds.20 mph88%30.18 "HgN/A
7:25 PM54 °FPassing clouds.22 mph88%30.18 "HgN/A
6:55 PM54 °FPassing clouds.20 mph88%30.18 "HgN/A
6:25 PM54 °FClear.18 mph88%30.18 "Hg10 mi
5:55 PM54 °FPassing clouds.18 mph88%30.18 "HgN/A
5:25 PM54 °FPassing clouds.21 mph88%30.18 "HgN/A
4:55 PM54 °FPassing clouds.18 mph88%30.15 "HgN/A
4:25 PM54 °FPassing clouds.20 mph94%30.15 "HgN/A
3:55 PM54 °FBroken clouds.18 mph94%30.15 "HgN/A
3:25 PM50 °FBroken clouds.10 mph100%30.15 "HgN/A
2:55 PM50 °FDrizzle. Partly sunny.10 mph100%30.15 "Hg3 mi
2:25 PM48 °FDrizzle. Broken clouds.10 mph100%30.18 "Hg1 mi
1:55 PM48 °FDrizzle. Broken clouds.12 mph100%30.18 "Hg1 mi
1:25 PM48 °FDrizzle. Mostly cloudy.10 mph100%30.18 "Hg3 mi
12:55 PM48 °FDrizzle. Partly sunny.8 mph100%30.18 "Hg4 mi
12:25 PM48 °FDrizzle. More clouds than sun.10 mph94%30.18 "Hg4 mi
11:55 AM48 °FDrizzle. Broken clouds.8 mph94%30.18 "HgN/A
11:25 AM48 °FDrizzle. Partly sunny.8 mph87%30.21 "HgN/A
10:55 AM48 °FDrizzle. Partly sunny.8 mph82%30.18 "HgN/A
10:25 AM46 °FPartly sunny.7 mph93%30.18 "HgN/A
9:55 AM46 °FPassing clouds.7 mph93%30.18 "HgN/A
8:55 AM45 °FPassing clouds.6 mph93%30.15 "HgN/A
Weather by CustomWeather, © 2015

See weather overviewHow to use our weather pages